Weather History for Rogers, AR

Change the Weather History Date:

Tuesday, December 3, 2013

  Actual Average Record
Temperature  
Mean Temperature 54 °F -  
Max Temperature 68 °F 50 °F 73 °F (2012)
Min Temperature 39 °F 33 °F 17 °F (2006)
Degree Days  
Heating Degree Days 12    
Growing Degree Days 4 (Base 50)    
Moisture  
Dew Point 44 °F    
Average Humidity 88    
Maximum Humidity 100    
Minimum Humidity 39    
Precipitation  
Precipitation 0.00 in - - ()
Sea Level Pressure  
Sea Level Pressure 29.63 in    
Wind  
Wind Speed 6 mph (SE)    
Max Wind Speed 13 mph    
Max Gust Speed -    
Visibility 4 miles    
Events Fog    
Averages and records for this station are not official NWS values.
T = Trace of Precipitation, MM = Missing Value Source: NWS Daily Summary

Daily Weather History Graph

Daily Weather History Graph

Search for Another Location

Airport:

Trip Planner

Search our weather history database for the weather conditions in past years. The results will help you decide how hot, cold, wet, or windy it might be!

Date:

Astronomy

Dec. 03, 2013 Rise Set
Actual Time 7:11 AM CST 5:01 PM CST
Civil Twilight 6:43 AM CST 5:29 PM CST
Nautical Twilight 6:11 AM CST 6:01 PM CST
Astronomical Twilight 5:40 AM CST 6:32 PM CST
Moon 7:42 AM CST (12/3) 6:04 PM CST (12/3)
Length of Visible Light 10h 46m
Length of Day
9h 49m
New Moon, 1% of the Moon is Illuminated
Dec 3
New Moon
Dec 9
First Quarter
Dec 17
Full
Dec 25
Last Quarter
Jan 1
New

Hourly Weather History & Observations

Time (CST) Temp. Windchill Dew Point Humidity Pressure Visibility Wind Dir Wind Speed Gust Speed Precip Events Conditions
12:57 AM 44.1 °F 41.5 °F 42.1 °F 93% 29.67 in 4.0 mi SSE 4.6 mph - N/A   Clear
1:42 AM 42.8 °F 39.3 °F 41.0 °F 93% 29.66 in 2.5 mi SE 5.8 mph - N/A   Clear
1:57 AM 42.8 °F 41.1 °F 39.2 °F 87% 29.65 in 1.5 mi East 3.5 mph - N/A   Clear
1:59 AM 42.1 °F 40.2 °F 41.0 °F 96% 29.65 in 1.5 mi ESE 3.5 mph - N/A   Clear
2:20 AM 42.8 °F - 41.0 °F 93% 29.65 in 2.0 mi Calm Calm - N/A   Clear
2:41 AM 41.0 °F 39.0 °F 39.2 °F 93% 29.65 in 1.0 mi ESE 3.5 mph - N/A   Clear
2:44 AM 39.2 °F 37.0 °F 39.2 °F 100% 29.65 in 0.5 mi SE 3.5 mph - N/A Fog Fog
2:52 AM 41.0 °F 37.1 °F 39.2 °F 93% 29.65 in 1.0 mi SE 5.8 mph - N/A   Clear
2:57 AM 42.8 °F 39.3 °F 41.0 °F 93% 29.65 in 1.8 mi SSE 5.8 mph - N/A   Clear
2:59 AM 42.8 °F 39.3 °F 41.0 °F 93% 29.65 in 2.5 mi SSE 5.8 mph - N/A   Clear
3:05 AM 42.8 °F 40.1 °F 42.8 °F 100% 29.66 in 3.0 mi SE 4.6 mph - N/A   Clear
3:11 AM 42.8 °F 40.1 °F 42.8 °F 100% 29.66 in 2.5 mi SE 4.6 mph - N/A   Clear
3:23 AM 42.8 °F 40.1 °F 41.0 °F 93% 29.66 in 1.8 mi SE 4.6 mph - N/A   Clear
3:37 AM 42.8 °F 39.3 °F 42.8 °F 100% 29.66 in 2.0 mi SE 5.8 mph - N/A   Clear
3:57 AM 43.0 °F 38.8 °F 42.1 °F 97% 29.64 in 2.0 mi SSE 6.9 mph - N/A   Clear
4:10 AM 42.8 °F 40.1 °F 42.8 °F 100% 29.64 in 1.8 mi SSE 4.6 mph - N/A   Clear
4:27 AM 42.8 °F 40.1 °F 42.8 °F 100% 29.63 in 1.0 mi SE 4.6 mph - N/A   Clear
4:35 AM 42.8 °F 38.6 °F 42.8 °F 100% 29.63 in 0.8 mi SE 6.9 mph - N/A   Clear
4:38 AM 42.8 °F 38.6 °F 42.8 °F 100% 29.63 in 0.8 mi SE 6.9 mph - N/A   Mist
4:42 AM 42.8 °F 39.3 °F 42.8 °F 100% 29.63 in 0.5 mi ESE 5.8 mph - N/A Fog Fog
4:46 AM 42.8 °F 39.3 °F 42.8 °F 100% 29.63 in 0.2 mi ESE 5.8 mph - N/A Fog Fog
4:57 AM 39.9 °F 37.8 °F 39.0 °F 97% 29.63 in 0.2 mi ESE 3.5 mph - N/A Fog Fog
5:57 AM 41.0 °F 38.0 °F 39.9 °F 96% 29.64 in 0.2 mi SE 4.6 mph - N/A Fog Fog
6:57 AM 39.0 °F 36.8 °F 37.9 °F 96% 29.65 in 0.2 mi ESE 3.5 mph - N/A Fog Fog
7:57 AM 41.0 °F 38.0 °F 39.9 °F 96% 29.65 in 0.2 mi East 4.6 mph - N/A Fog Fog
8:57 AM 45.0 °F 41.2 °F 44.1 °F 97% 29.66 in 0.2 mi ESE 6.9 mph - N/A Fog Fog
9:12 AM 46.4 °F 41.9 °F 44.6 °F 93% 29.66 in 0.5 mi ESE 9.2 mph - N/A Fog Fog
9:15 AM 46.4 °F 42.4 °F 44.6 °F 93% 29.66 in 1.0 mi ESE 8.1 mph - N/A   Overcast
9:19 AM 46.4 °F 41.9 °F 46.4 °F 100% 29.66 in 1.5 mi ESE 9.2 mph - N/A   Mostly Cloudy
9:27 AM 46.4 °F 42.4 °F 46.4 °F 100% 29.67 in 2.0 mi ESE 8.1 mph - N/A   Scattered Clouds
9:34 AM 46.4 °F 42.9 °F 46.4 °F 100% 29.67 in 3.0 mi East 6.9 mph - N/A   Scattered Clouds
9:57 AM 50.0 °F - 48.0 °F 93% 29.67 in 6.0 mi ESE 5.8 mph - N/A   Clear
10:57 AM 57.0 °F - 48.9 °F 74% 29.65 in 10.0 mi Variable 5.8 mph - N/A   Clear
11:57 AM 62.1 °F - 48.9 °F 62% 29.63 in 10.0 mi East 6.9 mph - N/A   Clear
12:57 PM 64.9 °F - 48.0 °F 54% 29.58 in 10.0 mi SSE 9.2 mph - N/A   Clear
1:57 PM 66.0 °F - 46.0 °F 48% 29.54 in 10.0 mi SSE 9.2 mph - N/A   Clear
2:57 PM 68.0 °F - 42.1 °F 39% 29.54 in 10.0 mi SE 9.2 mph - N/A   Clear
3:57 PM 66.9 °F - 44.1 °F 44% 29.55 in 10.0 mi SSE 6.9 mph - N/A   Clear
4:57 PM 62.1 °F - 50.0 °F 65% 29.57 in 10.0 mi SE 10.4 mph - N/A   Clear
5:57 PM 57.0 °F - 51.1 °F 81% 29.58 in 10.0 mi SE 8.1 mph - N/A   Clear
6:57 PM 55.0 °F - 51.1 °F 86% 29.60 in 10.0 mi SE 6.9 mph - N/A   Clear
7:57 PM 54.0 °F - 50.0 °F 86% 29.62 in 10.0 mi SSE 12.7 mph - N/A   Clear
8:47 PM 53.6 °F - 48.2 °F 82% 29.62 in 10.0 mi SSE 10.4 mph - N/A   Mostly Cloudy
8:57 PM 54.0 °F - 48.9 °F 83% 29.61 in 10.0 mi SSE 10.4 mph - N/A   Mostly Cloudy
9:57 PM 54.0 °F - 48.9 °F 83% 29.63 in 10.0 mi South 9.2 mph - N/A   Overcast
10:28 PM 51.8 °F - 48.2 °F 88% 29.62 in 10.0 mi SSE 6.9 mph - N/A   Scattered Clouds
10:57 PM 51.1 °F - 46.9 °F 86% 29.61 in 10.0 mi ESE 5.8 mph - N/A   Clear
11:57 PM 48.9 °F - 46.0 °F 90% 29.61 in 10.0 mi ESE 5.8 mph - N/A   Clear